Location: Unspecified
(38.9820°N, 94.4650°W)
Time: 15:28:25
(UTC-05:00)

Resurs 1-4 Rocket - Visible Passes

Search period start: 24 July 2016 00:00
Search period end: 03 August 2016 00:00
Orbit: 800 x 814 km, 98.4° (Epoch: 23 July)

Date Brightness Start Highest point End Pass type
(mag) Time Alt. Az. Time Alt. Az. Time Alt. Az.
24 Jul 3.2 03:30:01 10° NNE 03:34:54 38° E 03:37:12 25° SE visible
24 Jul 3.3 05:10:15 10° NNW 05:14:31 26° WNW 05:18:17 12° WSW visible
25 Jul 3.9 03:06:08 10° NE 03:10:11 22° E 03:12:18 18° SE visible
25 Jul 2.6 04:45:14 10° N 04:50:11 42° WNW 04:53:23 20° SW visible
26 Jul 4.5 02:43:09 10° ENE 02:45:24 13° E 02:47:24 11° ESE visible
26 Jul 2.1 04:20:29 10° N 04:25:44 72° WNW 04:28:28 29° SSW visible
27 Jul 2.3 03:55:58 10° NNE 04:01:13 68° ESE 04:03:34 33° S visible
27 Jul 3.9 05:37:32 10° NNW 05:40:27 15° WNW 05:43:21 10° W visible
28 Jul 3.1 03:31:41 10° NNE 03:36:36 39° E 03:38:40 28° SE visible
28 Jul 3.4 05:12:01 10° NNW 05:16:12 25° WNW 05:19:44 13° WSW visible
29 Jul 3.9 03:07:46 10° NE 03:11:54 23° E 03:13:46 19° ESE visible
29 Jul 2.7 04:46:58 10° N 04:51:52 40° WNW 04:54:51 21° SW visible
30 Jul 4.4 02:44:38 10° ENE 02:47:07 13° E 02:48:52 12° ESE visible
30 Jul 2.1 04:22:12 10° N 04:27:26 69° WNW 04:29:56 31° SSW visible
31 Jul 2.2 03:57:39 10° NNE 04:02:54 71° E 04:05:02 37° S visible
31 Jul 4.0 05:39:21 10° NNW 05:42:07 15° WNW 05:44:53 10° W visible
01 Aug 3.0 03:33:21 10° NNE 03:38:19 41° E 03:40:07 31° SE visible
01 Aug 3.4 05:13:46 10° NNW 05:17:52 24° WNW 05:21:11 13° WSW visible
02 Aug 3.8 03:09:23 10° NE 03:13:37 24° E 03:15:12 21° ESE visible
02 Aug 2.7 04:48:42 10° N 04:53:32 39° WNW 04:56:17 22° WSW visible
